Terminal Aerodrome Forecast
Issued by NWS Austin/San Antonio, TX

Home | Current Version | Previous Version | Text Only | Print | Product List | Glossary On
Versions: 1 2 3 4 5 6 7 8 9 10 11 12 13 14 15 16 17 18 19 20 21 22 23 24 25 26 27 28
000
FTUS44 KEWX 302320
TAFSAT
TAF
KSAT 302320Z 0100/0206 18010KT P6SM FEW050 SCT250
     FM011100 18007KT P6SM BKN012
     FM011400 18009KT P6SM SCT028 SCT250
     FM011700 15015KT P6SM VCSH SCT050 SCT250
     FM020000 14014KT P6SM SCT040 SCT250=

USA.gov is the U.S. government's official web portal to all federal, state and local government web resources and services.